NI0Z Weather Reports


time (UTC)temp
C
wind
direction
speed
KPH
gust
KPH
rain 1hr
cm
rain 24hr
cm
rain mn
cm
humidity
%
barometer
mb
20260906181132 34 327 1.6 1.6 0.00 0.00 0.00 51
20260906180627 35 320 1.6 1.6 0.00 0.00 0.00 51
20260906180121 35 317 0.0 0.0 0.00 0.00 0.00 50
20260906175619 35 316 0.0 8.0 0.00 0.00 0.00 50
20260906175115 34 325 0.0 1.6 0.00 0.00 0.00 53
20260906174613 34 318 0.0 1.6 0.00 0.00 0.00 53
20260906174108 34 334 1.6 4.8 0.00 0.00 0.00 52
20260906173603 33 321 0.0 1.6 0.00 0.00 0.00 53
20260906173058 34 320 1.6 1.6 0.00 0.00 0.00 51
20260906172552 34 327 1.6 4.8 0.00 0.00 0.00 50
20260906172048 34 320 0.0 1.6 0.00 0.00 0.00 54
20260906171547 33 328 1.6 3.2 0.00 0.00 0.00 52
20260906171043 33 320 0.0 3.2 0.00 0.00 0.00 52
20260906170539 33 338 4.8 8.0 0.00 0.00 0.00 52
20260906170037 33 328 3.2 3.2 0.00 0.00 0.00 53
20260906165535 33 328 1.6 3.2 0.00 0.00 0.00 54
20260906165029 33 309 0.0 1.6 0.00 0.00 0.00 53
20260906164528 33 331 1.6 3.2 0.00 0.00 0.00 53
20260906164025 33 343 3.2 3.2 0.00 0.00 0.00 54
20260906163520 33 326 3.2 3.2 0.00 0.00 0.00 53
20260906163016 33 328 3.2 3.2 0.00 0.00 0.00 55
20260906162512 33 328 1.6 3.2 0.00 0.00 0.00 58
20260906162008 32 327 1.6 1.6 0.00 0.00 0.00 58
20260906161502 32 322 1.6 1.6 0.00 0.00 0.00 57
20260906161001 33 323 1.6 4.8 0.00 0.00 0.00 57
20260906160455 33 331 1.6 4.8 0.00 0.00 0.00 56
20260906155953 32 331 3.2 3.2 0.00 0.00 0.00 58
20260906155451 32 333 3.2 3.2 0.00 0.00 0.00 58
20260906154948 32 324 1.6 1.6 0.00 0.00 0.00 60
20260906154443 32 333 4.8 8.0 0.00 0.00 0.00 60
20260906153941 32 351 3.2 3.2 0.00 0.00 0.00 60
20260906153440 31 345 4.8 8.0 0.00 0.00 0.00 60
20260906152935 31 328 1.6 4.8 0.00 0.00 0.00 61
20260906152430 31 336 1.6 3.2 0.00 0.00 0.00 61
20260906151929 31 3 3.2 8.0 0.00 0.00 0.00 61
20260906151425 31 349 4.8 8.0 0.00 0.00 0.00 62
20260906150920 31 322 1.6 4.8 0.00 0.00 0.00 63
20260906150415 30 321 1.6 1.6 0.00 0.00 0.00 64
20260906145914 30 328 3.2 4.8 0.00 0.00 0.00 64
20260906145408 30 325 3.2 3.2 0.00 0.00 0.00 64
20260906144903 30 326 1.6 3.2 0.00 0.00 0.00 65
20260906144358 30 332 1.6 3.2 0.00 0.00 0.00 64
20260906143853 30 329 3.2 4.8 0.00 0.00 0.00 64
20260906143348 29 331 3.2 4.8 0.00 0.00 0.00 64
20260906142844 29 330 3.2 3.2 0.00 0.00 0.00 65
20260906142339 28 334 3.2 4.8 0.00 0.00 0.00 65
20260906141838 29 330 3.2 4.8 0.00 0.00 0.00 65
20260906141333 29 325 0.0 3.2 0.00 0.00 0.00 66
20260906140832 29 328 3.2 4.8 0.00 0.00 0.00 65
20260906140327 29 345 4.8 8.0 0.00 0.00 0.00 64
20260906135825 28 345 1.6 4.8 0.00 0.00 0.00 65
20260906135320 28 330 3.2 3.2 0.00 0.00 0.00 66
20260906134815 28 329 4.8 4.8 0.00 0.00 0.00 66
20260906134310 28 329 1.6 4.8 0.00 0.00 0.00 66
20260906133806 28 330 3.2 8.0 0.00 0.00 0.00 65
20260906133301 27 333 1.6 3.2 0.00 0.00 0.00 67
20260906132757 27 334 3.2 3.2 0.00 0.00 0.00 67
20260906132252 28 329 1.6 3.2 0.00 0.00 0.00 67
20260906131748 27 323 0.0 1.6 0.00 0.00 0.00 68
20260906131248 27 322 0.0 1.6 0.00 0.00 0.00 69
20260906130743 27 317 0.0 3.2 0.00 0.00 0.00 69
20260906130238 26 325 1.6 3.2 0.00 0.00 0.00 69
20260906125737 26 328 1.6 3.2 0.00 0.00 0.00 70
20260906125235 26 329 1.6 3.2 0.00 0.00 0.00 70
20260906124730 26 324 1.6 1.6 0.00 0.00 0.00 70
20260906124226 26 326 1.6 3.2 0.00 0.00 0.00 70
20260906123724 26 332 1.6 1.6 0.00 0.00 0.00 71
20260906123220 26 327 1.6 3.2 0.00 0.00 0.00 71
20260906122719 26 326 1.6 1.6 0.00 0.00 0.00 73
20260906122215 26 326 1.6 1.6 0.00 0.00 0.00 72
20260906121711 25 330 0.0 1.6 0.00 0.00 0.00 72
20260906121207 25 326 0.0 1.6 0.00 0.00 0.00 72
20260906120703 25 322 1.6 3.2 0.00 0.00 0.00 72
20260906120159 25 326 0.0 1.6 0.00 0.00 0.00 73
20260906115654 25 323 1.6 1.6 0.00 0.00 0.00 73
20260906115149 26 324 1.6 1.6 0.00 0.00 0.00 72
20260906114648 26 326 1.6 3.2 0.00 0.00 0.00 72
20260906114143 26 328 1.6 1.6 0.00 0.00 0.00 72
20260906113638 26 323 1.6 3.2 0.00 0.00 0.00 72
20260906113138 26 331 0.0 3.2 0.00 0.00 0.00 72
20260906112637 26 328 1.6 3.2 0.00 0.00 0.00 71
20260906112135 25 336 1.6 3.2 0.00 0.00 0.00 72
20260906111634 26 325 1.6 1.6 0.00 0.00 0.00 72
20260906111129 25 326 1.6 1.6 0.00 0.00 0.00 72
20260906110623 26 324 0.0 1.6 0.00 0.00 0.00 72
20260906110118 26 322 1.6 1.6 0.00 0.00 0.00 72
20260906105612 25 324 1.6 1.6 0.00 0.00 0.00 72
20260906105109 25 335 1.6 1.6 0.00 0.00 0.00 73
20260906104608 25 324 0.0 0.0 0.00 0.00 0.00 74
20260906104102 25 326 0.0 0.0 0.00 0.00 0.00 75
20260906103600 25 323 1.6 1.6 0.00 0.00 0.00 75
20260906103056 25 324 0.0 0.0 0.00 0.00 0.00 76
20260906102555 25 324 0.0 1.6 0.00 0.00 0.00 75
20260906102051 25 324 0.0 0.0 0.00 0.00 0.00 75
20260906101545 25 324 0.0 0.0 0.00 0.00 0.00 75
20260906101039 25 324 0.0 0.0 0.00 0.00 0.00 74
20260906100536 25 326 1.6 1.6 0.00 0.00 0.00 73
20260906100036 25 325 0.0 1.6 0.00 0.00 0.00 74
20260906095530 25 324 0.0 1.6 0.00 0.00 0.00 74
20260906095026 25 324 0.0 1.6 0.00 0.00 0.00 73
20260906094525 26 324 0.0 1.6 0.00 0.00 0.00 74
20260906094021 25 324 0.0 1.6 0.00 0.00 0.00 73
20260906093517 25 325 0.0 1.6 0.00 0.00 0.00 73
20260906093016 25 323 0.0 0.0 0.00 0.00 0.00 74
20260906092511 26 325 0.0 1.6 0.00 0.00 0.00 72
20260906092007 26 331 1.6 1.6 0.00 0.00 0.00 72
20260906091502 25 328 1.6 1.6 0.00 0.00 0.00 73
20260906090959 25 324 0.0 0.0 0.00 0.00 0.00 76
20260906090453 25 324 0.0 0.0 0.00 0.00 0.00 76
20260906085953 25 324 0.0 0.0 0.00 0.00 0.00 76
20260906085452 25 324 0.0 0.0 0.00 0.00 0.00 77
20260906084951 25 324 0.0 0.0 0.00 0.00 0.00 77
20260906084447 25 324 0.0 0.0 0.00 0.00 0.00 77
20260906083945 25 324 0.0 0.0 0.00 0.00 0.00 78
20260906083442 25 324 0.0 0.0 0.00 0.00 0.00 77
20260906082941 25 324 0.0 0.0 0.00 0.00 0.00 76
20260906082436 25 324 0.0 0.0 0.00 0.00 0.00 74
20260906081931 25 324 0.0 0.0 0.00 0.00 0.00 74
20260906081427 25 324 0.0 0.0 0.00 0.00 0.00 74
20260906080923 25 324 0.0 0.0 0.00 0.00 0.00 74
20260906080420 25 324 0.0 0.0 0.00 0.00 0.00 74
20260906075919 25 324 0.0 0.0 0.00 0.00 0.00 74
20260906075414 25 324 0.0 0.0 0.00 0.00 0.00 73
20260906074909 25 324 0.0 0.0 0.00 0.00 0.00 73
20260906074409 25 324 0.0 0.0 0.00 0.00 0.00 73
20260906073908 26 324 0.0 0.0 0.00 0.00 0.00 73
20260906073403 26 324 0.0 0.0 0.00 0.00 0.00 72
20260906072859 26 324 0.0 0.0 0.00 0.00 0.00 72
20260906072354 26 324 0.0 0.0 0.00 0.00 0.00 72
20260906071850 26 324 0.0 0.0 0.00 0.00 0.00 71
20260906071345 26 324 0.0 0.0 0.00 0.00 0.00 70
20260906070842 26 324 0.0 0.0 0.00 0.00 0.00 71
20260906070337 26 324 0.0 0.0 0.00 0.00 0.00 71
20260906065833 26 324 0.0 0.0 0.00 0.00 0.00 70
20260906065327 26 324 0.0 0.0 0.00 0.00 0.00 70
20260906064823 27 324 0.0 0.0 0.00 0.00 0.00 69
20260906064319 27 324 0.0 0.0 0.00 0.00 0.00 68
20260906063819 27 324 0.0 0.0 0.00 0.00 0.00 67
20260906063314 27 324 0.0 0.0 0.00 0.00 0.00 67
20260906062809 28 324 0.0 0.0 0.00 0.00 0.00 66
20260906062308 28 325 0.0 0.0 0.00 0.00 0.00 64
20260906061804 28 324 0.0 1.6 0.00 0.00 0.00 63
20260906061301 28 324 0.0 1.6 0.00 0.00 0.00 63
20260906060755 28 332 1.6 1.6 0.00 0.00 0.00 63
20260906060253 29 327 1.6 3.2 0.00 0.00 0.00 62
20260906055748 29 329 1.6 1.6 0.00 0.00 0.00 62
20260906055243 29 326 1.6 3.2 0.00 0.00 0.00 62
20260906054739 29 327 1.6 3.2 0.00 0.00 0.00 62
20260906054234 29 326 1.6 1.6 0.00 0.00 0.00 62
20260906053731 29 335 1.6 3.2 0.00 0.00 0.00 62
20260906053226 29 323 1.6 1.6 0.00 0.00 0.00 62
20260906052721 29 335 1.6 1.6 0.00 0.00 0.00 62
20260906052217 29 325 1.6 1.6 0.00 0.00 0.00 62
20260906051714 29 328 1.6 3.2 0.00 0.00 0.00 62
20260906051213 30 329 1.6 3.2 0.00 0.00 0.00 62
20260906050709 30 332 1.6 3.2 0.00 0.00 0.00 62
20260906050204 30 331 1.6 3.2 0.00 0.00 0.00 62
20260906045702 30 330 3.2 3.2 0.00 0.00 0.00 62
20260906045157 30 334 3.2 3.2 0.00 0.00 0.00 62
20260906044653 30 324 1.6 3.2 0.00 0.00 0.00 63
20260906044148 30 326 1.6 3.2 0.00 0.00 0.00 63
20260906043644 29 326 1.6 3.2 0.00 0.00 0.00 63
20260906043140 29 324 1.6 1.6 0.00 0.00 0.00 64
20260906042639 29 323 0.0 0.0 0.00 0.00 0.00 65
20260906042133 29 324 0.0 1.6 0.00 0.00 0.00 64
20260906041629 30 326 1.6 1.6 0.00 0.00 0.00 64
20260906041124 30 324 1.6 3.2 0.00 0.00 0.00 64
20260906040620 30 325 0.0 1.6 0.00 0.00 0.00 63
20260906040115 30 329 1.6 1.6 0.00 0.00 0.00 63
20260906035610 30 328 1.6 1.6 0.00 0.00 0.00 63
20260906035106 30 324 1.6 3.2 0.00 0.00 0.00 63
20260906034606 29 332 1.6 3.2 0.00 0.00 0.00 64
20260906034101 29 321 0.0 0.0 0.00 0.00 0.00 65
20260906033556 30 326 0.0 0.0 0.00 0.00 0.00 65
20260906033051 30 322 0.0 0.0 0.00 0.00 0.00 65
20260906032548 30 321 0.0 0.0 0.00 0.00 0.00 65
20260906032048 29 322 0.0 1.6 0.00 0.00 0.00 65
20260906031543 29 321 0.0 1.6 0.00 0.00 0.00 66
20260906031039 29 322 0.0 0.0 0.00 0.00 0.00 67
20260906030538 29 321 0.0 0.0 0.00 0.00 0.00 67
20260906030037 29 321 0.0 0.0 0.00 0.00 0.00 66
20260906025532 29 322 0.0 0.0 0.00 0.00 0.00 66
20260906025030 29 322 0.0 0.0 0.00 0.00 0.00 66
20260906024526 29 322 0.0 0.0 0.00 0.00 0.00 66
20260906024026 30 322 0.0 0.0 0.00 0.00 0.00 65
20260906023522 30 321 0.0 0.0 0.00 0.00 0.00 64
20260906023017 30 320 0.0 0.0 0.00 0.00 0.00 63
20260906022512 31 322 0.0 1.6 0.00 0.00 0.00 62
20260906022007 31 326 1.6 1.6 0.00 0.00 0.00 61
20260906021502 30 324 0.0 0.0 0.00 0.00 0.00 62
20260906020957 30 323 0.0 0.0 0.00 0.00 0.00 63
20260906020451 30 322 0.0 0.0 0.00 0.00 0.00 63
20260906015950 30 324 0.0 0.0 0.00 0.00 0.00 64
20260906015450 30 321 0.0 0.0 0.00 0.00 0.00 63
20260906014949 31 321 0.0 0.0 0.00 0.00 0.00 61
20260906014449 31 323 0.0 0.0 0.00 0.00 0.00 60
20260906013945 31 323 0.0 0.0 0.00 0.00 0.00 59
20260906013441 31 321 0.0 1.6 0.00 0.00 0.00 58
20260906012936 31 324 1.6 1.6 0.00 0.00 0.00 57
20260906012431 31 328 1.6 1.6 0.00 0.00 0.00 58
20260906011930 31 319 0.0 1.6 0.00 0.00 0.00 59
20260906011426 31 315 1.6 1.6 0.00 0.00 0.00 58
20260906010921 30 322 0.0 0.0 0.00 0.00 0.00 59
20260906010417 31 319 0.0 0.0 0.00 0.00 0.00 60
20260906005913 31 322 0.0 0.0 0.00 0.00 0.00 59
20260906005412 31 317 0.0 0.0 0.00 0.00 0.00 58
20260906004910 31 322 0.0 0.0 0.00 0.00 0.00 56
20260906004405 31 322 0.0 0.0 0.00 0.00 0.00 54
20260906003901 32 322 0.0 0.0 0.00 0.00 0.00 53
20260906003356 32 322 0.0 0.0 0.00 0.00 0.00 52
20260906002851 32 322 0.0 0.0 0.00 0.00 0.00 53
20260906002350 32 322 0.0 0.0 0.00 0.00 0.00 51
20260906001846 33 322 0.0 0.0 0.00 0.00 0.00 50
20260906001342 33 322 0.0 0.0 0.00 0.00 0.00 49
20260906000837 33 322 0.0 0.0 0.00 0.00 0.00 49
20260906000337 34 322 0.0 0.0 0.00 0.00 0.00 47
20260905235837 34 322 0.0 0.0 0.00 0.00 0.00 47
20260905235331 34 322 0.0 0.0 0.00 0.00 0.00 46
20260905234827 35 322 0.0 0.0 0.00 0.00 0.00 46
20260905234322 35 321 0.0 0.0 0.00 0.00 0.00 45
20260905233817 35 321 0.0 0.0 0.00 0.00 0.00 44
20260905233312 35 319 0.0 0.0 0.00 0.00 0.00 44
20260905232811 35 319 0.0 0.0 0.00 0.00 0.00 44
20260905232307 35 323 0.0 0.0 0.00 0.00 0.00 44
20260905231803 35 321 0.0 1.6 0.00 0.00 0.00 44
20260905231258 35 315 0.0 0.0 0.00 0.00 0.00 42
20260905230754 35 322 1.6 3.2 0.00 0.00 0.00 42
20260905230252 35 324 0.0 0.0 0.00 0.00 0.00 43
20260905225751 35 323 0.0 0.0 0.00 0.00 0.00 43
20260905225247 35 321 0.0 0.0 0.00 0.00 0.00 43
20260905224746 35 322 0.0 0.0 0.00 0.00 0.00 41
20260905224242 35 315 0.0 0.0 0.00 0.00 0.00 40
20260905223737 35 324 0.0 1.6 0.00 0.00 0.00 41
20260905223234 36 324 1.6 4.8 0.00 0.00 0.00 41
20260905222730 36 305 0.0 1.6 0.00 0.00 0.00 42
20260905222228 36 322 1.6 1.6 0.00 0.00 0.00 41
20260905221725 36 301 0.0 0.0 0.00 0.00 0.00 41
20260905221221 36 260 1.6 4.8 0.00 0.00 0.00 41
20260905220717 36 321 0.0 1.6 0.00 0.00 0.00 41
20260905220213 35 320 0.0 0.0 0.00 0.00 0.00 42
20260905215712 35 323 0.0 3.2 0.00 0.00 0.00 41
20260905215208 36 344 1.6 3.2 0.00 0.00 0.00 42
20260905214704 36 342 1.6 3.2 0.00 0.00 0.00 41
20260905214159 36 325 1.6 3.2 0.00 0.00 0.00 42
20260905213654 36 331 3.2 3.2 0.00 0.00 0.00 42
20260905213150 36 346 1.6 3.2 0.00 0.00 0.00 41
20260905212645 36 318 1.6 3.2 0.00 0.00 0.00 41
20260905212144 36 239 3.2 3.2 0.00 0.00 0.00 41
20260905211639 36 290 0.0 1.6 0.00 0.00 0.00 41
20260905211134 36 327 0.0 4.8 0.00 0.00 0.00 41
20260905210631 35 319 1.6 1.6 0.00 0.00 0.00 42
20260905210126 35 319 1.6 1.6 0.00 0.00 0.00 42
20260905205624 35 292 1.6 3.2 0.00 0.00 0.00 41
20260905205124 35 318 0.0 1.6 0.00 0.00 0.00 42
20260905204624 35 318 1.6 4.8 0.00 0.00 0.00 44
20260905204120 35 323 0.0 1.6 0.00 0.00 0.00 43
20260905203619 35 313 0.0 1.6 0.00 0.00 0.00 44
20260905203115 35 326 1.6 3.2 0.00 0.00 0.00 42
20260905202610 35 320 0.0 0.0 0.00 0.00 0.00 44
20260905202105 35 321 0.0 0.0 0.00 0.00 0.00 43
20260905201601 35 335 1.6 3.2 0.00 0.00 0.00 45
20260905201100 35 323 0.0 0.0 0.00 0.00 0.00 42
20260905200556 36 323 0.0 1.6 0.00 0.00 0.00 41
20260905200056 36 358 6.4 8.0 0.00 0.00 0.00 41
20260905195550 36 324 1.6 4.8 0.00 0.00 0.00 41
20260905195046 36 335 3.2 3.2 0.00 0.00 0.00 42
20260905194545 36 345 1.6 3.2 0.00 0.00 0.00 43
20260905194044 35 331 4.8 4.8 0.00 0.00 0.00 44
20260905193539 35 350 1.6 3.2 0.00 0.00 0.00 43
20260905193035 35 334 1.6 3.2 0.00 0.00 0.00 44
20260905192530 35 283 0.0 1.6 0.00 0.00 0.00 43
20260905192026 35 318 0.0 1.6 0.00 0.00 0.00 45
20260905191525 35 328 1.6 3.2 0.00 0.00 0.00 44
20260905191024 35 326 0.0 3.2 0.00 0.00 0.00 44
20260905190522 36 319 0.0 4.8 0.00 0.00 0.00 44
20260905190022 35 322 0.0 3.2 0.00 0.00 0.00 44
20260905185516 35 333 3.2 4.8 0.00 0.00 0.00 44
20260905185015 35 324 4.8 4.8 0.00 0.00 0.00 45
20260905184510 35 316 1.6 1.6 0.00 0.00 0.00 47
20260905184009 35 300 1.6 1.6 0.00 0.00 0.00 46
20260905183508 35 317 0.0 0.0 0.00 0.00 0.00 47
20260905183003 35 323 0.0 1.6 0.00 0.00 0.00 46
20260905182503 34 311 0.0 1.6 0.00 0.00 0.00 50
20260905181958 35 305 0.0 1.6 0.00 0.00 0.00 47